Hourly Data Report for July 21, 2018

TORONTO CITY
ONTARIO
Current Station Operator: ECCC - MSC

43°40'00.000" N
79°24'00.000" W
112.50 m
6158355
71508
XTO

Download Data

Hourly Data (July 2018)
Hourly Data Report for July 21, 2018
TIME
LST
Temp Definition
°C
Dew Point Definition
°C
Rel Hum Definition
%
Precip. Amount Definition
mm

Wind Dir Definition
10's deg

Wind Spd Definition
km/h
Visibility Definition
km
Stn Press Definition
kPa
Hmdx Definition


Wind Chill Definition


Weather Definition


00:00 25.1 16.0 57 0.0 LegendMM LegendMM   99.92 30   LegendNANA
01:00 24.5 16.4 61 0.0 LegendMM LegendMM   99.90 29   LegendNANA
02:00 22.3 17.5 74 0.4 LegendMM LegendMM   99.90 28   LegendNANA
03:00 22.5 17.1 72 0.5 LegendMM LegendMM   99.88 28   LegendNANA
04:00 22.8 16.5 68 0.0 LegendMM LegendMM   99.86 28   LegendNANA
05:00 22.7 15.5 64 0.0 LegendMM LegendMM   99.87 27   LegendNANA
06:00 22.7 15.0 62 0.0 LegendMM LegendMM   99.88 27   LegendNANA
07:00 22.8 15.4 63 0.0 LegendMM LegendMM   99.92 27   LegendNANA
08:00 23.6 15.4 60 0.0 LegendMM LegendMM   99.95 28   LegendNANA
09:00 23.3 14.7 58 0.0 LegendMM LegendMM   99.96 27   LegendNANA
10:00 24.2 14.8 56 0.0 LegendMM LegendMM   99.98 28   LegendNANA
11:00 23.8 15.7 61 0.0 LegendMM LegendMM   100.00 28   LegendNANA
12:00 23.7 16.4 63 0.0 LegendMM LegendMM   99.99 29   LegendNANA
13:00 23.3 17.0 68 0.0 LegendMM LegendMM   99.98 29   LegendNANA
14:00 23.4 17.1 67 0.0 LegendMM LegendMM   99.94 29   LegendNANA
15:00 23.7 16.7 65 0.0 LegendMM LegendMM   99.91 29   LegendNANA
16:00 24.0 16.6 63 0.0 LegendMM LegendMM   99.90 29   LegendNANA
17:00 24.1 16.3 62 0.0 LegendMM LegendMM   99.87 29   LegendNANA
18:00 23.8 15.7 61 0.0 LegendMM LegendMM   99.88 28   LegendNANA
19:00 23.9 16.2 62 0.0 LegendMM LegendMM   99.89 29   LegendNANA
20:00 23.8 17.2 66 0.0 LegendMM LegendMM   99.92 29   LegendNANA
21:00 23.9 14.8 57 0.0 LegendMM LegendMM   99.95 28   LegendNANA
22:00 22.5 12.1 52 0.0 LegendMM LegendMM   99.98 25   LegendNANA
23:00 21.8 12.3 55 0.0 LegendMM LegendMM   99.97     LegendNANA

Notes on Data Quality.

Legend

  • E = Estimated
  • M = Missing
  • NA = Not Available*
  • [empty] = Indicates an unobserved value
Date modified: